EN

Hourly Weather Dziekcz

Today, 28 October, Wednesday

Time Temperature Precipitation Wind Pressure Humidity
00:00 +7°C° 0 mm 4 mps 748 mmHg 83%
01:00 +7°C° 0 mm 4 mps 748 mmHg 83%
02:00 +7°C° 0 mm 4 mps 748 mmHg 83%
03:00 +6°C° 0 mm 4 mps 747 mmHg 83%
04:00 +6°C° 0 mm 4 mps 747 mmHg 83%
05:00 +6°C° 0 mm 4 mps 747 mmHg 83%
06:00 +6°C° 0 mm 4 mps 747 mmHg 82%
07:00 +6°C° 0 mm 5 mps 747 mmHg 80%
08:00 +7°C° 0 mm 5 mps 747 mmHg 75%
09:00 +8°C° 0 mm 6 mps 747 mmHg 69%
10:00 +9°C° 0 mm 6 mps 747 mmHg 63%
11:00 +9°C° 0 mm 6 mps 747 mmHg 63%
12:00 +10°C° 0 mm 5 mps 747 mmHg 63%
13:00 +10°C° 0 mm 5 mps 747 mmHg 63%
14:00 +9°C° 0.3 mm 5 mps 747 mmHg 68%
15:00 +10°C° 0.3 mm 4 mps 747 mmHg 74%
16:00 +8°C° 0.3 mm 4 mps 747 mmHg 79%
17:00 +8°C° 0 mm 4 mps 747 mmHg 81%
18:00 +8°C° 0 mm 3 mps 747 mmHg 83%
19:00 +8°C° 0 mm 3 mps 747 mmHg 85%
20:00 +8°C° 0 mm 3 mps 747 mmHg 86%
21:00 +8°C° 0 mm 3 mps 748 mmHg 86%
22:00 +7°C° 0 mm 4 mps 748 mmHg 87%
23:00 +8°C° 0 mm 3 mps 748 mmHg 89%

Tomorrow, 29 October, Thursday

Time Temperature Precipitation Wind Pressure Humidity
00:00 +7°C° 0 mm 3 mps 747 mmHg 92%
01:00 +7°C° 0 mm 3 mps 747 mmHg 94%
02:00 +7°C° 0 mm 3 mps 747 mmHg 94%
03:00 +7°C° 0 mm 3 mps 747 mmHg 95%
04:00 +7°C° 0 mm 3 mps 747 mmHg 95%
05:00 +7°C° 0 mm 3 mps 746 mmHg 95%
06:00 +7°C° 0 mm 3 mps 746 mmHg 94%
07:00 +7°C° 0 mm 3 mps 746 mmHg 94%
08:00 +7°C° 0 mm 4 mps 746 mmHg 89%
09:00 +8°C° 0 mm 4 mps 746 mmHg 84%
10:00 +10°C° 0 mm 4 mps 746 mmHg 80%
11:00 +10°C° 0.2 mm 4 mps 746 mmHg 80%
12:00 +10°C° 0.2 mm 4 mps 746 mmHg 80%
13:00 +11°C° 0.2 mm 4 mps 746 mmHg 80%
14:00 +10°C° 0.4 mm 4 mps 746 mmHg 80%
15:00 +10°C° 0.4 mm 4 mps 746 mmHg 80%
16:00 +10°C° 0.4 mm 4 mps 746 mmHg 81%
17:00 +8°C° 0 mm 4 mps 747 mmHg 82%
18:00 +8°C° 0 mm 4 mps 747 mmHg 83%
19:00 +7°C° 0 mm 4 mps 748 mmHg 84%
20:00 +7°C° 0.1 mm 5 mps 748 mmHg 84%
21:00 +7°C° 0.1 mm 5 mps 748 mmHg 83%
22:00 +8°C° 0.1 mm 5 mps 749 mmHg 82%
23:00 +7°C° 0 mm 5 mps 749 mmHg 83%

Day after tomorrow, 30 October, Friday

Time Temperature Precipitation Wind Pressure Humidity
00:00 +7°C° 0 mm 5 mps 749 mmHg 83%
01:00 +7°C° 0 mm 5 mps 750 mmHg 84%
02:00 +7°C° 0 mm 5 mps 750 mmHg 84%
03:00 +7°C° 0 mm 5 mps 750 mmHg 84%
04:00 +7°C° 0 mm 4 mps 751 mmHg 85%
05:00 +7°C° 0 mm 4 mps 751 mmHg 85%
06:00 +7°C° 0 mm 4 mps 751 mmHg 86%
07:00 +6°C° 0 mm 4 mps 751 mmHg 87%
08:00 +7°C° 0 mm 4 mps 751 mmHg 85%
09:00 +7°C° 0 mm 4 mps 751 mmHg 82%
10:00 +8°C° 0 mm 3 mps 751 mmHg 80%
11:00 +8°C° 0.1 mm 3 mps 751 mmHg 81%
12:00 +8°C° 0.1 mm 3 mps 750 mmHg 81%
13:00 +8°C° 0.1 mm 3 mps 750 mmHg 82%
14:00 +8°C° 1.1 mm 3 mps 750 mmHg 86%
15:00 +8°C° 1.1 mm 3 mps 749 mmHg 90%
16:00 +7°C° 1.1 mm 2 mps 749 mmHg 94%
17:00 +7°C° 0.8 mm 2 mps 749 mmHg 94%
18:00 +8°C° 0.8 mm 2 mps 749 mmHg 95%
19:00 +8°C° 0.8 mm 2 mps 750 mmHg 95%
20:00 +7°C° 0.1 mm 2 mps 750 mmHg 95%
21:00 +8°C° 0.1 mm 1 mps 751 mmHg 95%
22:00 +8°C° 0.1 mm 1 mps 751 mmHg 94%
23:00 +8°C° 0 mm 1 mps 752 mmHg 94%

31 October, Saturday

Time Temperature Precipitation Wind Pressure Humidity
00:00 +7°C° 0 mm 1 mps 752 mmHg 94%
01:00 +7°C° 0 mm 1 mps 753 mmHg 94%
02:00 +7°C° 0 mm 1 mps 753 mmHg 93%
03:00 +6°C° 0 mm 1 mps 754 mmHg 92%
04:00 +6°C° 0 mm 1 mps 754 mmHg 92%
05:00 +6°C° 0 mm 1 mps 755 mmHg 91%
06:00 +6°C° 0 mm 1 mps 755 mmHg 90%
07:00 +5°C° 0 mm 0 mps 756 mmHg 89%
08:00 +7°C° 0 mm 1 mps 756 mmHg 84%
09:00 +8°C° 0 mm 1 mps 756 mmHg 79%
10:00 +9°C° 0 mm 1 mps 757 mmHg 74%
11:00 +10°C° 0 mm 1 mps 757 mmHg 71%
12:00 +10°C° 0 mm 2 mps 757 mmHg 68%
13:00 +10°C° 0 mm 2 mps 757 mmHg 65%
14:00 +10°C° 0 mm 2 mps 757 mmHg 68%
15:00 +9°C° 0 mm 2 mps 757 mmHg 72%
16:00 +8°C° 0 mm 2 mps 757 mmHg 76%
17:00 +8°C° 0 mm 2 mps 757 mmHg 78%
18:00 +7°C° 0 mm 2 mps 757 mmHg 80%
19:00 +7°C° 0 mm 2 mps 757 mmHg 83%
20:00 +6°C° 0 mm 2 mps 757 mmHg 83%
21:00 +6°C° 0 mm 2 mps 757 mmHg 83%
22:00 +6°C° 0 mm 2 mps 757 mmHg 83%
23:00 +5°C° 0 mm 3 mps 757 mmHg 84%

1 November, Sunday

Time Temperature Precipitation Wind Pressure Humidity
00:00 +4°C° 0 mm 3 mps 757 mmHg 84%
01:00 +4°C° 0 mm 3 mps 757 mmHg 84%
02:00 +4°C° 0 mm 3 mps 757 mmHg 85%
03:00 +4°C° 0 mm 3 mps 757 mmHg 86%
04:00 +4°C° 0 mm 3 mps 757 mmHg 86%
05:00 +4°C° 0 mm 3 mps 756 mmHg 87%
06:00 +4°C° 0 mm 4 mps 756 mmHg 87%
07:00 +4°C° 0 mm 4 mps 756 mmHg 88%
08:00 +5°C° 0 mm 4 mps 756 mmHg 83%
09:00 +6°C° 0 mm 5 mps 756 mmHg 78%
10:00 +7°C° 0 mm 5 mps 756 mmHg 74%
11:00 +8°C° 0 mm 5 mps 755 mmHg 72%
12:00 +9°C° 0 mm 5 mps 755 mmHg 69%
13:00 +9°C° 0 mm 5 mps 755 mmHg 67%
14:00 +9°C° 0 mm 5 mps 754 mmHg 69%
15:00 +8°C° 0 mm 5 mps 754 mmHg 72%
16:00 +8°C° 0 mm 5 mps 753 mmHg 74%
17:00 +7°C° 0 mm 5 mps 753 mmHg 75%
18:00 +7°C° 0 mm 5 mps 753 mmHg 76%
19:00 +7°C° 0 mm 5 mps 753 mmHg 77%
20:00 +7°C° 0 mm 5 mps 753 mmHg 78%
21:00 +7°C° 0 mm 5 mps 753 mmHg 79%
22:00 +6°C° 0 mm 5 mps 752 mmHg 80%
23:00 +6°C° 0 mm 5 mps 752 mmHg 82%

2 November, Monday

Time Temperature Precipitation Wind Pressure Humidity
00:00 +6°C° 0 mm 4 mps 752 mmHg 83%
01:00 +6°C° 0 mm 4 mps 752 mmHg 84%
02:00 +6°C° 0 mm 4 mps 752 mmHg 86%
03:00 +6°C° 0 mm 4 mps 752 mmHg 87%
04:00 +6°C° 0 mm 4 mps 752 mmHg 89%
05:00 +6°C° 0 mm 4 mps 752 mmHg 88%
06:00 +6°C° 0 mm 4 mps 752 mmHg 87%
07:00 +6°C° 0 mm 4 mps 752 mmHg 87%
08:00 +7°C° 0 mm 4 mps 752 mmHg 84%
09:00 +8°C° 0 mm 4 mps 752 mmHg 81%
10:00 +9°C° 0 mm 5 mps 752 mmHg 78%
11:00 +10°C° 0.1 mm 4 mps 752 mmHg 79%
12:00 +10°C° 0.1 mm 4 mps 752 mmHg 79%
13:00 +10°C° 0.1 mm 4 mps 752 mmHg 80%
14:00 +10°C° 0.3 mm 4 mps 752 mmHg 82%
15:00 +8°C° 0.3 mm 4 mps 752 mmHg 84%
16:00 +8°C° 0.3 mm 4 mps 752 mmHg 87%
17:00 +8°C° 0.3 mm 4 mps 752 mmHg 87%
18:00 +8°C° 0.3 mm 4 mps 752 mmHg 88%
19:00 +8°C° 0.3 mm 4 mps 752 mmHg 88%
20:00 +8°C° 0.2 mm 4 mps 752 mmHg 88%
21:00 +8°C° 0.2 mm 4 mps 752 mmHg 88%
22:00 +8°C° 0.2 mm 4 mps 752 mmHg 88%
23:00 +8°C° 0.1 mm 4 mps 752 mmHg 87%
Show more